Tracking 22836 objects as of 16-Apr-2021
HD Live streaming from Space Station
objects crossing your sky now

STARLINK-64

Track STARLINK-64 now!
10-day predictions
STARLINK-64 is classified as:


NORAD ID: 44275
Int'l Code: 2019-029AS
Perigee: 352.2 km
Apogee: 352.5 km
Inclination: 53.0 °
Period: 91.4 minutes
Semi major axis: 6723 km
RCS: Unknown
Launch date: May 24, 2019
Source: United States (US)
Launch site: AIR FORCE EASTERN TEST RANGE (AFETR)
aabbcc
Your satellite tracking list
Your tracking list is empty




NASA's NSSDC Master Catalog

Two Line Element Set (TLE):
1 44275U 19029AS  21106.24291234  .00451458  00000-0  28486-2 0  9997
2 44275  52.9903 186.1328 0000244  94.2013 265.9033 15.74792264106158
Source of the keplerian elements: AFSPC